Flag for Brunei Weather past 2 weeks in Bandar Seri Begawan, Brunei

Now
88 °F

Partly sunny.


Feels Like: 96 °F
Forecast: 79 / 90 °F
Wind: 9 mph from Northwest

Location: Brunei Airport

Current Time: May 28, 2015 at 4:49:08 PM

Latest Report: May 28, 2015 at 4:00 PM


Visibility: N/A

Pressure: 29.77 "Hg

Humidity: 62%

Dew point: 73 °F

Location of Bandar Seri BegawanLocation

Historic Weather in Bandar Seri Begawan — Graph

°F

Bandar Seri Begawan temperature yesterday

Maximum temperature yesterday: 90 °F (at 2:30 PM)
Minimum temperature yesterday: 77 °F (at 6:30 AM)
Average temperature yesterday: 81 °F

Past Weeks' High & Low Weather Summary

 TemperatureHumidityPressure
High93 °F (May 16, 2:00 PM)100% (May 15, 8:00 AM)29.98 "Hg (May 15, 8:00 AM)
Low75 °F (May 17, 6:00 AM)52% (May 14, 11:00 AM)29.74 "Hg (May 13, 4:00 PM)
Average83 °F81%29.85 "Hg
* Reported May 13 3:00 PM — May 28 3:00 PM, Bandar Seri Begawan, Weather by CustomWeather, © 2015

Note: Actual official high and low records may vary slightly from our data, if they occured in-between our weather recording intervals... More about our weather records

Advertising

Bandar Seri Begawan weather history for previous 24 hours

 ConditionsComfort  
Time TempWeatherWind HumidityBarometerVisibility
3:00 PM
Thu, May 28
90 °FPartly sunny.8 mph63%29.77 "HgN/A
2:30 PM90 °FPartly sunny.7 mph63%29.77 "HgN/A
2:00 PM90 °FPartly sunny.8 mph63%29.80 "HgN/A
1:30 PM90 °FPartly sunny.8 mph63%29.80 "HgN/A
1:00 PM90 °FPartly sunny.12 mph63%29.80 "HgN/A
12:30 PM90 °FPartly sunny.7 mph63%29.83 "HgN/A
12:00 PM91 °FPartly sunny.5 mph59%29.83 "HgN/A
11:30 AM91 °FPartly sunny.3 mph56%29.83 "HgN/A
11:00 AM90 °FPartly sunny.3 mph59%29.86 "HgN/A
10:30 AM88 °FPartly sunny.2 mph62%29.86 "HgN/A
10:00 AM86 °FPartly sunny.2 mph66%29.86 "HgN/A
9:30 AM86 °FPartly sunny.1 mph70%29.89 "HgN/A
9:00 AM82 °FPartly sunny.1 mph79%29.89 "HgN/A
8:30 AM81 °FPartly sunny.2 mph84%29.89 "HgN/A
8:00 AM79 °FPartly sunny.2 mph89%29.89 "HgN/A
7:30 AM77 °FPartly sunny.2 mph94%29.86 "HgN/A
7:00 AM77 °FBroken clouds.2 mph94%29.86 "HgN/A
6:30 AM75 °FBroken clouds.2 mph100%29.86 "HgN/A
6:00 AM75 °FPartly cloudy.3 mph100%29.83 "HgN/A
5:30 AM75 °FPartly cloudy.2 mph100%29.83 "HgN/A
5:00 AM75 °FPassing clouds.3 mph100%29.83 "HgN/A
4:30 AM75 °FPassing clouds.2 mph100%29.83 "HgN/A
4:00 AM75 °FPassing clouds.5 mph100%29.83 "HgN/A
3:30 AM75 °FPassing clouds.2 mph100%29.83 "HgN/A
3:00 AM75 °FPassing clouds.2 mph100%29.83 "HgN/A
2:30 AM75 °FPassing clouds.3 mph100%29.83 "HgN/A
2:00 AM77 °FPassing clouds.5 mph94%29.83 "HgN/A
1:30 AM77 °FPassing clouds.6 mph94%29.86 "HgN/A
1:00 AM77 °FPassing clouds.3 mph94%29.86 "HgN/A
12:30 AM77 °FPassing clouds.3 mph94%29.86 "HgN/A
12:00 AM77 °FPassing clouds.3 mph94%29.89 "HgN/A
11:30 PM
Wed, May 27
77 °FPassing clouds.5 mph94%29.89 "HgN/A
11:00 PM79 °FPassing clouds.3 mph89%29.89 "HgN/A
10:30 PM77 °FPassing clouds.3 mph94%29.89 "HgN/A
10:00 PM77 °FPassing clouds.5 mph94%29.89 "HgN/A
9:30 PM77 °FPassing clouds.7 mph94%29.89 "HgN/A
9:00 PM79 °FPassing clouds.5 mph94%29.89 "HgN/A
8:30 PM79 °FPassing clouds.5 mph89%29.86 "HgN/A
8:00 PM79 °FLight rain. Passing clouds.3 mph94%29.86 "HgN/A
7:30 PM79 °FLight rain. Passing clouds.6 mph94%29.86 "HgN/A
7:00 PM79 °FSprinkles. Passing clouds.8 mph94%29.86 "HgN/A
6:30 PM81 °FSprinkles. Passing clouds.10 mph89%29.83 "HgN/A
6:00 PM86 °FSprinkles. Partly sunny.5 mph70%29.83 "HgN/A
5:30 PM86 °FThunderstorms. Broken clouds.9 mph70%29.83 "HgN/A
5:00 PM86 °FThunderstorms. Broken clouds.9 mph75%29.80 "HgN/A
4:30 PM86 °FBroken clouds.13 mph70%29.80 "HgN/A
4:00 PM86 °FBroken clouds.13 mph75%29.80 "HgN/A
Weather by CustomWeather, © 2015

See weather overviewHow to use our weather pages